FALCON 9 DEB (47847 NORAD) Tracking and Keplerian Element Data

This shows tracking and keplerian element data for the satellite.

Feedback or suggestion? Click here.




ElementValue
Catalog47847
NameFALCON 9 DEB
Epoch Orbit432
Epoch Day94.96208114
Epoch Year2021
RAAN60.3419
Inclination53.0363
Eccentricity0.0007574
Argument of Perigee254.6253
Mean Anonmoly105.3955
Mean Motion16.36950969
Decay Rate0.04158319
L11 47847U 21018BN 21094.96208114 .04158319 12259-4 42924-3 0 9997
L22 47847 53.0363 60.3419 0007574 254.6253 105.3955 16.36950969 4326

Live tracking and technical data element details for FALCON 9 DEB (NORAD 47847). FALCON 9 DEB can be tracked NOW for your location showing map with azimuth and elevation plus other details from your city location.

Track the satellite on the map from your city or location and see movement details for azimuth, elevation, latitude, longitude, range, height, and movement on the map or in text.







IsCatalogInMostPopularTable: catalog: 47847, numindb: 47
Update: records affected: 1



GetName: 47847 FALCON 9 DEB

Hit Count: updated at: Mon, 21 Jun 2021 03:47:02 GMT